Regional Weather Roundup
Issued by NWS

Home | Current Version | Previous Version | Text Only | Print | Product List | Glossary On
Versions: 1 2 3 4 5 6 7 8 9 10 11 12 13 14 15 16 17 18 19 20 21 22 23 24 25 26 27 28 29 30 31 32 33 34 35 36 37 38 39 40 41 42 43 44 45 46 47 48 49 50
000
ASUS44 KJAN 110010
RWRMS

MISSISSIPPI HOURLY WEATHER ROUNDUP
NATIONAL WEATHER SERVICE JACKSON MS
700 PM CDT THU JUL 10 2014

NOTE: "FAIR: INDICATES FEW OR NO CLOUDS BELOW 12,000 FEET WITH NO
SIGNIFICANT WEATHER AND/OR OBSTRUCTIONS TO VISIBILITY.

MSZ001>002-007>008-010>013-018>021-025>028-034>036-110100-
NORTHWEST MISSISSIPPI

CITY           SKY/WX    TMP DP  RH WIND       PRES   REMARKS
CLARKSDALE     FAIR      84  72  65 CALM      30.05R
CLEVELAND      TSTM      80  71  75 NW12G25   30.05R
GREENWOOD      SUNNY     82  73  74 CALM      30.02R
6HR MIN TEMP:  82; 6HR MAX TEMP:  90;

GREENVILLE     TSTM      76  71  85 NW8       30.07R
6HR MIN TEMP:  76; 6HR MAX TEMP:  90; 6HR PCP: TRACE;

GRENADA        FAIR      82  70  65 CALM      30.04R
OXFORD         FAIR      82  68  61 CALM      30.07R
TUNICA         CLOUDY    81  68  65 N5        30.06R
$$

MSZ003>006-009-014>017-022>024-029>033-037>039-110100-
NORTHEAST MISSISSIPPI

CITY           SKY/WX    TMP DP  RH WIND       PRES   REMARKS
BELMONT        FAIR      83  66  57 N3        30.06R
COLUMBUS AFB   SUNNY     85  69  58 N6        30.04R
6HR MIN TEMP:  84; 6HR MAX TEMP:  89;

CORINTH        FAIR      81  66  61 N3        30.06R
GOLDN TRIANGLE MOSUNNY   90  72  55 CALM      30.04R HX  96
STARKVILLE     FAIR      82  70  65 CALM      30.04R
TUPELO         MOSUNNY   84  68  58 NE6       30.05R
6HR MIN TEMP:  84; 6HR MAX TEMP:  89;

$$

MSZ040-058-110100-
CENTRAL MISSISSIPPI

CITY           SKY/WX    TMP DP  RH WIND       PRES   REMARKS
JACKSON INTL   PTSUNNY   81  76  84 S3        30.04R THUNDER
6HR MIN TEMP:  78; 6HR MAX TEMP:  91; 6HR PCP: TRACE;

JACKSON HAWKNS PTSUNNY   84  73  69 W6        30.04R HX  90
6HR MIN TEMP:  83; 6HR MAX TEMP:  90;

MERIDIAN KEY   MOSUNNY   83  71  67 CALM      30.05R
6HR MIN TEMP:  79; 6HR MAX TEMP:  87;

MERIDIAN NAS   LGT RAIN  77  70  79 W5        30.05R
6HR MIN TEMP:  77; 6HR MAX TEMP:  84; 6HR PCP:  0.01;

RAYMOND        FAIR      81  75  83 W5        30.05R
VICKSBURG      CLOUDY    76  72  87 S6        30.03S
6HR MIN TEMP:  74; 6HR MAX TEMP:  90; 6HR PCP:  0.19;

$$

MSZ059>079-110100-
SOUTH MISSISSIPPI

CITY           SKY/WX    TMP DP  RH WIND       PRES   REMARKS
BROOKHAVEN     FAIR      75  73  94 CALM      30.06R
COLUMBIA       FAIR      82  73  74 SE3       30.03S
HATTIESBURG    CLOUDY    75  71  87 SE3       30.06S
6HR MIN TEMP:  74; 6HR MAX TEMP:  92; 6HR PCP:  0.85;

MCCOMB         MOSUNNY   88  71  57 E5        30.03R HX  94
6HR MIN TEMP:  86; 6HR MAX TEMP:  91;

NATCHEZ        MOSUNNY   84  73  70 NE5       30.04R HX  91
6HR MIN TEMP:  84; 6HR MAX TEMP:  90;

PINE BELT      CLOUDY    75  72  88 S8        30.06F
6HR MIN TEMP:  75; 6HR MAX TEMP:  91;

$$

MSZ080>082-110100-
COASTAL MISSISSIPPI

CITY           SKY/WX    TMP DP  RH WIND       PRES   REMARKS
BAY ST LOUIS   PTSUNNY  N/A N/A N/A CALM      30.04F
BILOXI         MOSUNNY   83  72  70 SE6       30.04S
6HR MIN TEMP:  77; 6HR MAX TEMP:  91; 6HR PCP:  0.23;

PASCAGOULA     MOSUNNY   82  72  71 CALM      30.05R
6HR MIN TEMP:  71; 6HR MAX TEMP:  93; 6HR PCP:  1.01;

GULFPORT       PTSUNNY   85  73  67 S5        30.04R HX  91
6HR MIN TEMP:  85; 6HR MAX TEMP:  95;

$$


USA.gov is the U.S. government's official web portal to all federal, state and local government web resources and services.